Time,TemperatureF,DewpointF,PressureIn,WindDirection,WindDirectionDegrees,WindSpeedMPH,WindSpeedGustMPH,Humidity,HourlyPrecipIn,Conditions,Clouds,dailyrainin,SoftwareType,DateUTC
2013-02-14 00:02:00,65.0,-99.9,29.78,NW,322,0.0,0.0,-999,0.00,,,0.00,,2013-02-14 05:02:00,
2013-02-14 00:11:00,65.0,-99.9,29.78,NW,322,0.0,0.0,-999,0.00,,,0.00,,2013-02-14 05:11:00,
2013-02-14 00:22:00,65.0,-99.9,29.78,NW,322,0.0,0.0,-999,0.00,,,0.00,,2013-02-14 05:22:00,
2013-02-14 00:32:00,64.0,-99.9,29.78,NW,322,0.0,0.0,-999,0.00,,,0.00,,2013-02-14 05:32:00,
2013-02-14 00:42:00,64.0,-99.9,29.78,NW,322,0.0,0.0,-999,0.00,,,0.00,,2013-02-14 05:42:00,
2013-02-14 00:52:00,64.0,-99.9,29.78,NW,322,0.0,0.0,-999,0.00,,,0.00,,2013-02-14 05:52:00,
2013-02-14 01:02:00,64.0,-99.9,29.77,NW,322,0.0,0.0,-999,0.00,,,0.00,,2013-02-14 06:02:00,
2013-02-14 01:11:00,64.0,-99.9,29.78,NW,322,0.0,0.0,-999,0.00,,,0.00,,2013-02-14 06:11:00,
2013-02-14 01:22:00,64.0,-99.9,29.78,NW,322,0.0,0.0,-999,0.00,,,0.00,,2013-02-14 06:22:00,
2013-02-14 01:32:00,64.0,-99.9,29.77,NW,322,0.0,0.0,-999,0.00,,,0.00,,2013-02-14 06:32:00,
2013-02-14 01:42:00,64.0,-99.9,29.77,NW,322,0.0,0.0,-999,0.00,,,0.00,,2013-02-14 06:42:00,
2013-02-14 01:52:00,64.0,-99.9,29.76,NNW,328,0.0,0.0,-999,0.00,,,0.00,,2013-02-14 06:52:00,
2013-02-14 02:01:00,63.0,-99.9,29.75,NNW,343,0.0,0.0,-999,0.00,,,0.00,,2013-02-14 07:01:00,
2013-02-14 02:11:00,64.0,-99.9,29.76,NNW,343,0.0,0.0,-999,0.00,,,0.00,,2013-02-14 07:11:00,
2013-02-14 02:22:00,64.0,-99.9,29.76,NNW,343,0.0,0.0,-999,0.00,,,0.00,,2013-02-14 07:22:00,
2013-02-14 02:32:00,64.0,-99.9,29.76,NNW,343,0.0,0.0,-999,0.00,,,0.00,,2013-02-14 07:32:00,
2013-02-14 02:42:00,64.0,-99.9,29.76,NNW,343,0.0,0.0,-999,0.00,,,0.00,,2013-02-14 07:42:00,
2013-02-14 02:52:00,63.0,-99.9,29.75,NNW,343,0.0,0.0,-999,0.00,,,0.00,,2013-02-14 07:52:00,
2013-02-14 03:01:00,62.0,-99.9,29.75,NNW,343,0.0,0.0,-999,0.00,,,0.00,,2013-02-14 08:01:00,
2013-02-14 03:11:00,62.0,-99.9,29.75,NNW,343,0.0,0.0,-999,0.00,,,0.00,,2013-02-14 08:11:00,
2013-02-14 03:22:00,62.0,-99.9,29.75,NNW,343,0.0,0.0,-999,0.00,,,0.00,,2013-02-14 08:22:00,
2013-02-14 03:32:00,61.0,-99.9,29.75,NNW,343,0.0,0.0,-999,0.00,,,0.00,,2013-02-14 08:32:00,
2013-02-14 03:43:00,61.0,-99.9,29.75,NNW,343,0.0,0.0,-999,0.00,,,0.00,,2013-02-14 08:43:00,
2013-02-14 03:52:00,62.0,-99.9,29.75,NNW,343,0.0,0.0,-999,0.00,,,0.00,,2013-02-14 08:52:00,
2013-02-14 04:02:00,61.0,-99.9,29.75,NNW,343,0.0,0.0,-999,0.00,,,0.00,,2013-02-14 09:02:00,
2013-02-14 04:11:00,61.0,-99.9,29.75,NNW,343,0.0,0.0,-999,0.00,,,0.00,,2013-02-14 09:11:00,
2013-02-14 04:22:00,61.0,-99.9,29.75,NNW,343,0.0,0.0,-999,0.00,,,0.00,,2013-02-14 09:22:00,
2013-02-14 04:32:00,61.0,-99.9,29.74,NNW,343,0.0,0.0,-999,0.00,,,0.00,,2013-02-14 09:32:00,
2013-02-14 04:42:00,61.0,-99.9,29.74,NNW,343,0.0,0.0,-999,0.00,,,0.00,,2013-02-14 09:42:00,
2013-02-14 04:52:00,61.0,-99.9,29.74,NNW,343,0.0,0.0,-999,0.00,,,0.00,,2013-02-14 09:52:00,
2013-02-14 05:02:00,61.0,-99.9,29.74,NNW,343,0.0,0.0,-999,0.00,,,0.00,,2013-02-14 10:02:00,
2013-02-14 05:11:00,61.0,-99.9,29.73,NNW,343,0.0,0.0,-999,0.00,,,0.00,,2013-02-14 10:11:00,
2013-02-14 05:22:00,61.0,-99.9,29.73,NNW,343,0.0,0.0,-999,0.00,,,0.00,,2013-02-14 10:22:00,
2013-02-14 05:32:00,61.0,-99.9,29.73,NNW,343,0.0,0.0,-999,0.00,,,0.00,,2013-02-14 10:32:00,
2013-02-14 05:42:00,61.0,-99.9,29.73,NNW,343,0.0,0.0,-999,0.00,,,0.00,,2013-02-14 10:42:00,
2013-02-14 05:52:00,61.0,-99.9,29.73,NNW,343,0.0,0.0,-999,0.00,,,0.00,,2013-02-14 10:52:00,
2013-02-14 06:02:00,61.0,-99.9,29.74,NNW,343,0.0,0.0,-999,0.00,,,0.00,,2013-02-14 11:02:00,
2013-02-14 06:11:00,61.0,-99.9,29.75,NNW,343,0.0,0.0,-999,0.00,,,0.00,,2013-02-14 11:11:00,
2013-02-14 06:22:00,61.0,-99.9,29.75,NNW,343,0.0,0.0,-999,0.00,,,0.00,,2013-02-14 11:22:00,
2013-02-14 06:32:00,61.0,-99.9,29.75,NNW,343,0.0,0.0,-999,0.00,,,0.00,,2013-02-14 11:32:00,
2013-02-14 06:42:00,61.0,-99.9,29.75,NNW,343,0.0,0.0,-999,0.00,,,0.00,,2013-02-14 11:42:00,
2013-02-14 06:52:00,62.0,-99.9,29.75,NNW,343,0.0,0.0,-999,0.00,,,0.00,,2013-02-14 11:52:00,
2013-02-14 07:02:00,62.0,-99.9,29.75,NNW,343,0.0,0.0,-999,0.00,,,0.00,,2013-02-14 12:02:00,
2013-02-14 07:12:00,62.0,-99.9,29.75,NNW,343,0.0,0.0,-999,0.00,,,0.00,,2013-02-14 12:12:00,
2013-02-14 07:22:00,63.0,-99.9,29.76,NNW,343,0.0,0.0,-999,0.00,,,0.00,,2013-02-14 12:22:00,
2013-02-14 07:32:00,62.0,-99.9,29.76,NNW,343,0.0,0.0,-999,0.00,,,0.00,,2013-02-14 12:32:00,
2013-02-14 07:42:00,62.0,-99.9,29.77,NNW,343,0.0,0.0,-999,0.00,,,0.00,,2013-02-14 12:42:00,
2013-02-14 07:53:00,62.0,-99.9,29.77,NNW,343,0.0,0.0,-999,0.00,,,0.00,,2013-02-14 12:53:00,
2013-02-14 08:02:00,62.0,-99.9,29.78,NNW,343,0.0,0.0,-999,0.00,,,0.00,,2013-02-14 13:02:00,
2013-02-14 08:11:00,62.0,-99.9,29.78,NNW,343,0.0,0.0,-999,0.00,,,0.00,,2013-02-14 13:11:00,
2013-02-14 08:21:00,62.0,-99.9,29.78,NNW,343,0.0,0.0,-999,0.00,,,0.00,,2013-02-14 13:21:00,
2013-02-14 08:32:00,63.0,-99.9,29.78,ESE,121,0.0,0.0,-999,0.00,,,0.00,,2013-02-14 13:32:00,
2013-02-14 08:42:00,64.0,-99.9,29.78,SE,132,5.0,5.0,-999,0.00,,,0.00,,2013-02-14 13:42:00,
2013-02-14 08:52:00,64.0,-99.9,29.78,SE,132,5.0,5.0,-999,0.00,,,0.00,,2013-02-14 13:52:00,
2013-02-14 09:01:00,65.0,-99.9,29.78,ESE,104,0.0,0.0,-999,0.00,,,0.00,,2013-02-14 14:01:00,
2013-02-14 09:11:00,66.0,-99.9,29.78,ESE,118,4.0,0.0,-999,0.00,,,0.00,,2013-02-14 14:11:00,
2013-02-14 09:22:00,66.0,-99.9,29.78,ESE,118,4.0,0.0,-999,0.00,,,0.00,,2013-02-14 14:22:00,
2013-02-14 09:32:00,66.0,-99.9,29.78,SE,139,3.0,6.0,-999,0.00,,,0.00,,2013-02-14 14:32:00,
2013-02-14 09:42:00,66.0,-99.9,29.78,SE,139,3.0,6.0,-999,0.00,,,0.00,,2013-02-14 14:42:00,
2013-02-14 09:52:00,65.0,-99.9,29.78,SE,125,1.0,0.0,-999,0.00,,,0.00,,2013-02-14 14:52:00,
2013-02-14 10:02:00,66.0,-99.9,29.79,East,90,1.0,0.0,-999,0.00,,,0.00,,2013-02-14 15:02:00,
2013-02-14 10:11:00,67.0,-99.9,29.79,East,87,0.0,0.0,-999,0.00,,,0.00,,2013-02-14 15:11:00,
2013-02-14 10:22:00,67.0,-99.9,29.79,East,87,0.0,0.0,-999,0.00,,,0.00,,2013-02-14 15:22:00,
2013-02-14 10:32:00,67.0,-99.9,29.80,East,91,0.0,0.0,-999,0.00,,,0.00,,2013-02-14 15:32:00,
2013-02-14 10:42:00,67.0,-99.9,29.80,East,91,0.0,0.0,-999,0.00,,,0.00,,2013-02-14 15:42:00,
2013-02-14 10:52:00,67.0,-99.9,29.80,SE,129,0.0,0.0,-999,0.00,,,0.00,,2013-02-14 15:52:00,
2013-02-14 11:02:00,68.0,-99.9,29.79,SE,129,0.0,0.0,-999,0.00,,,0.00,,2013-02-14 16:02:00,
2013-02-14 11:11:00,68.0,-99.9,29.78,ENE,69,0.0,0.0,-999,0.00,,,0.00,,2013-02-14 16:11:00,
2013-02-14 11:22:00,68.0,-99.9,29.78,ENE,69,0.0,0.0,-999,0.00,,,0.00,,2013-02-14 16:22:00,
2013-02-14 11:32:00,68.0,-99.9,29.78,North,359,0.0,0.0,-999,0.00,,,0.00,,2013-02-14 16:32:00,
2013-02-14 11:42:00,68.0,-99.9,29.78,North,359,0.0,0.0,-999,0.00,,,0.00,,2013-02-14 16:42:00,
2013-02-14 11:52:00,68.0,-99.9,29.79,North,359,0.0,0.0,-999,0.00,,,0.00,,2013-02-14 16:52:00,
2013-02-14 12:01:00,68.0,-99.9,29.79,NW,321,0.0,0.0,-999,0.00,,,0.00,,2013-02-14 17:01:00,
2013-02-14 12:11:00,66.0,-99.9,29.79,NNW,333,3.0,6.0,-999,0.00,,,0.00,,2013-02-14 17:11:00,
2013-02-14 12:22:00,66.0,-99.9,29.79,NNW,333,3.0,6.0,-999,0.00,,,0.00,,2013-02-14 17:22:00,
2013-02-14 12:32:00,67.0,-99.9,29.79,North,354,5.0,0.0,-999,0.00,,,0.00,,2013-02-14 17:32:00,
2013-02-14 12:42:00,67.0,-99.9,29.79,North,354,5.0,0.0,-999,0.00,,,0.00,,2013-02-14 17:42:00,
2013-02-14 12:52:00,66.0,-99.9,29.79,NNE,25,8.0,8.0,-999,0.00,,,0.00,,2013-02-14 17:52:00,
2013-02-14 13:02:00,64.0,-99.9,29.78,WNW,300,5.0,0.0,-999,0.00,,,0.00,,2013-02-14 18:02:00,
2013-02-14 13:11:00,64.0,-99.9,29.78,WNW,300,5.0,0.0,-999,0.00,,,0.00,,2013-02-14 18:11:00,
2013-02-14 13:23:00,64.0,-99.9,29.78,North,357,2.0,7.0,-999,0.00,,,0.00,,2013-02-14 18:23:00,
2013-02-14 13:32:00,64.0,-99.9,29.78,NW,321,2.0,6.0,-999,0.00,,,0.00,,2013-02-14 18:32:00,
2013-02-14 13:42:00,64.0,-99.9,29.78,NW,321,2.0,6.0,-999,0.00,,,0.00,,2013-02-14 18:42:00,
2013-02-14 13:52:00,64.0,-99.9,29.77,NNW,333,7.0,10.0,-999,0.00,,,0.00,,2013-02-14 18:52:00,
2013-02-14 14:02:00,63.0,-99.9,29.76,North,354,3.0,6.0,-999,0.00,,,0.00,,2013-02-14 19:02:00,
2013-02-14 14:11:00,63.0,-99.9,29.76,North,352,7.0,7.0,-999,0.01,,,0.00,,2013-02-14 19:11:00,
2013-02-14 14:22:00,63.0,-99.9,29.76,North,352,7.0,7.0,-999,0.01,,,0.00,,2013-02-14 19:22:00,
2013-02-14 14:32:00,63.0,-99.9,29.75,NNW,336,4.0,8.0,-999,0.01,,,0.00,,2013-02-14 19:32:00,
2013-02-14 14:42:00,63.0,-99.9,29.75,NNW,336,4.0,8.0,-999,0.01,,,0.00,,2013-02-14 19:42:00,
2013-02-14 14:52:00,63.0,-99.9,29.75,NNW,336,4.0,4.0,-999,0.01,,,0.00,,2013-02-14 19:52:00,
2013-02-14 15:01:00,63.0,-99.9,29.74,North,349,6.0,10.0,-999,0.01,,,0.00,,2013-02-14 20:01:00,
2013-02-14 15:11:00,63.0,-99.9,29.74,NNW,332,1.0,0.0,-999,0.04,,,0.00,,2013-02-14 20:11:00,
2013-02-14 15:22:00,63.0,-99.9,29.74,NNW,332,1.0,0.0,-999,0.04,,,0.00,,2013-02-14 20:22:00,
2013-02-14 15:32:00,62.0,-99.9,29.74,NNW,333,0.0,0.0,-999,0.04,,,0.00,,2013-02-14 20:32:00,
2013-02-14 15:42:00,62.0,-99.9,29.74,NNW,333,0.0,0.0,-999,0.04,,,0.00,,2013-02-14 20:42:00,
2013-02-14 15:52:00,62.0,-99.9,29.77,WNW,295,3.0,5.0,-999,0.04,,,0.00,,2013-02-14 20:52:00,
2013-02-14 16:02:00,62.0,-99.9,29.77,West,262,2.0,0.0,-999,0.04,,,0.00,,2013-02-14 21:02:00,
2013-02-14 16:11:00,62.0,-99.9,29.77,West,262,2.0,0.0,-999,0.04,,,0.00,,2013-02-14 21:11:00,
2013-02-14 16:22:00,62.0,-99.9,29.75,NNW,333,3.0,5.0,-999,0.25,,,0.00,,2013-02-14 21:22:00,
2013-02-14 16:32:00,62.0,-99.9,29.75,NNW,340,1.0,0.0,-999,0.25,,,0.00,,2013-02-14 21:32:00,
2013-02-14 16:42:00,62.0,-99.9,29.75,NNW,340,1.0,0.0,-999,0.25,,,0.00,,2013-02-14 21:42:00,
2013-02-14 16:52:00,61.0,-99.9,29.77,NNW,330,1.0,3.0,-999,0.25,,,0.00,,2013-02-14 21:52:00,
2013-02-14 17:02:00,61.0,-99.9,29.77,NW,325,2.0,0.0,-999,0.25,,,0.00,,2013-02-14 22:02:00,
2013-02-14 17:11:00,61.0,-99.9,29.78,NW,308,2.0,0.0,-999,0.05,,,0.00,,2013-02-14 22:11:00,
2013-02-14 17:21:00,61.0,-99.9,29.78,NW,308,2.0,0.0,-999,0.05,,,0.00,,2013-02-14 22:21:00,
2013-02-14 17:32:00,61.0,-99.9,29.77,NNW,336,0.0,0.0,-999,0.05,,,0.00,,2013-02-14 22:32:00,
2013-02-14 17:42:00,61.0,-99.9,29.77,NNW,336,0.0,0.0,-999,0.05,,,0.00,,2013-02-14 22:42:00,
2013-02-14 17:52:00,61.0,-99.9,29.77,NNW,328,1.0,0.0,-999,0.05,,,0.00,,2013-02-14 22:52:00,
2013-02-14 18:01:00,62.0,-99.9,29.77,North,357,1.0,0.0,-999,0.05,,,0.00,,2013-02-14 23:01:00,
2013-02-14 18:11:00,62.0,-99.9,29.77,North,357,1.0,0.0,-999,0.05,,,0.00,,2013-02-14 23:11:00,
2013-02-14 18:22:00,62.0,-99.9,29.79,NNW,336,0.0,0.0,-999,0.08,,,0.00,,2013-02-14 23:22:00,
2013-02-14 18:32:00,62.0,-99.9,29.81,NNW,336,0.0,0.0,-999,0.08,,,0.00,,2013-02-14 23:32:00,
2013-02-14 18:42:00,62.0,-99.9,29.81,NNW,336,0.0,0.0,-999,0.08,,,0.00,,2013-02-14 23:42:00,
2013-02-14 18:52:00,63.0,-99.9,29.80,NNW,336,0.0,0.0,-999,0.08,,,0.00,,2013-02-14 23:52:00,
2013-02-14 19:02:00,63.0,-99.9,29.81,NNW,336,0.0,0.0,-999,0.08,,,0.00,,2013-02-15 00:02:00,
2013-02-14 19:11:00,63.0,-99.9,29.81,NNW,336,0.0,0.0,-999,0.08,,,0.00,,2013-02-15 00:11:00,
2013-02-14 19:22:00,63.0,-99.9,29.82,NNW,336,0.0,0.0,-999,0.04,,,0.00,,2013-02-15 00:22:00,
2013-02-14 19:32:00,63.0,-99.9,29.83,NNW,336,0.0,0.0,-999,0.04,,,0.00,,2013-02-15 00:32:00,
2013-02-14 19:42:00,63.0,-99.9,29.83,NNW,336,0.0,0.0,-999,0.04,,,0.00,,2013-02-15 00:42:00,
2013-02-14 19:52:00,63.0,-99.9,29.83,NNW,336,0.0,0.0,-999,0.04,,,0.00,,2013-02-15 00:52:00,
2013-02-14 20:02:00,62.0,-99.9,29.82,NNW,336,0.0,0.0,-999,0.04,,,0.00,,2013-02-15 01:02:00,
2013-02-14 20:11:00,62.0,-99.9,29.82,NNW,336,0.0,0.0,-999,0.04,,,0.00,,2013-02-15 01:11:00,
2013-02-14 20:22:00,63.0,-99.9,29.81,NNW,336,0.0,0.0,-999,0.08,,,0.61,,2013-02-15 01:22:00,
2013-02-14 20:32:00,62.0,-99.9,29.81,ESE,110,0.0,0.0,-999,0.08,,,0.61,,2013-02-15 01:32:00,
2013-02-14 20:42:00,62.0,-99.9,29.81,ESE,110,0.0,0.0,-999,0.08,,,0.61,,2013-02-15 01:42:00,
2013-02-14 20:52:00,63.0,-99.9,29.83,ESE,110,0.0,0.0,-999,0.08,,,0.61,,2013-02-15 01:52:00,
2013-02-14 21:01:00,63.0,-99.9,29.83,ESE,110,0.0,0.0,-999,0.08,,,0.61,,2013-02-15 02:01:00,
2013-02-14 21:11:00,63.0,-99.9,29.83,ESE,110,0.0,0.0,-999,0.01,,,0.61,,2013-02-15 02:11:00,
2013-02-14 21:21:00,63.0,-99.9,29.83,ESE,110,0.0,0.0,-999,0.01,,,0.61,,2013-02-15 02:21:00,
2013-02-14 21:32:00,63.0,-99.9,29.86,NNW,330,1.0,0.0,-999,0.01,,,0.61,,2013-02-15 02:32:00,
2013-02-14 21:42:00,63.0,-99.9,29.86,NNW,330,1.0,0.0,-999,0.01,,,0.61,,2013-02-15 02:42:00,
2013-02-14 21:52:00,62.0,-99.9,29.84,NNW,330,0.0,0.0,-999,0.01,,,0.61,,2013-02-15 02:52:00,
2013-02-14 22:01:00,63.0,-99.9,29.83,NNW,330,0.0,0.0,-999,0.02,,,0.61,,2013-02-15 03:01:00,
2013-02-14 22:02:00,62.0,-99.9,29.82,NNW,330,0.0,0.0,-999,0.01,,,0.61,,2013-02-15 03:02:00,
2013-02-14 22:11:00,63.0,-99.9,29.83,NNW,330,0.0,0.0,-999,0.02,,,0.61,,2013-02-15 03:11:00,
2013-02-14 22:22:00,63.0,-99.9,29.83,NNW,330,0.0,0.0,-999,0.02,,,0.61,,2013-02-15 03:22:00,
2013-02-14 22:32:00,63.0,-99.9,29.83,NNW,330,0.0,0.0,-999,0.02,,,0.61,,2013-02-15 03:32:00,
2013-02-14 22:42:00,63.0,-99.9,29.83,NNW,330,0.0,0.0,-999,0.02,,,0.61,,2013-02-15 03:42:00,
2013-02-14 22:52:00,63.0,-99.9,29.83,NNW,330,0.0,0.0,-999,0.02,,,0.61,,2013-02-15 03:52:00,